Regional Weather Roundup
Issued by NWS

Home | Current Version | Previous Version | Graphics & Text | Print | Product List | Glossary On
Versions: 1 2 3 4 5 6 7 8 9 10 11 12 13 14 15 16 17 18 19 20 21 22 23 24 25 26 27
000
ASUS45 KBOU 202207
RWRCO

WEATHER ROUNDUP FOR COLORADO
NATIONAL WEATHER SERVICE DENVER/BOULDER CO
400 PM MDT WED SEP 20 2017

NOTE: "FAIR" INDICATES FEW OR NO CLOUDS BELOW 12000 FEET WITH NO
SIGNIFICANT WEATHER AND/OR OBSTRUCTIONS TO VISIBILITY.

COZ001>005-013-030-031-202300-
...NORTHWEST COLORADO...

CITY           SKY/WX    TMP DP  RH WIND       PRES   REMARKS
CRAIG          FAIR      75  28  17 SW17G28   29.86F
HAYDEN         PTSUNNY   70  32  24 W16G25    29.90F
MEEKER         FAIR      75  31  19 SW14G33   29.88F
RABBIT EARS PA FAIR      52  34  50 W8        30.15S
STEAMBOAT SPGS FAIR      68  37  31 W6        29.91F
WALDEN         FAIR      64  30  27 SW21G26   30.00S
$$

COZ006>008-011-202300-
...WEST CENTRAL VALLEYS...

CITY           SKY/WX    TMP DP  RH WIND       PRES   REMARKS
GRAND JUNCTION PTSUNNY   79  36  21 NW5       29.81F
MONTROSE       FAIR      79  29  16 SW15G24   29.90F
EAGLE          FAIR      76  30  18 SW26G35   29.91F
RIFLE          FAIR      80  32  17 W17G25    29.84F
DELTA          FAIR      85  28  12 SW17G23   29.86F
NUCLA          FAIR      79  25  13 SW17G26   29.97F
$$

COZ017>023-064>068-202300-
...SOUTHWEST COLORADO...

CITY           SKY/WX    TMP DP  RH WIND       PRES   REMARKS
DURANGO        FAIR      74  28  18 VRB5      30.04F
CORTEZ         FAIR      80  26  13 SW21G26   29.98F
PAGOSA SPRINGS FAIR      71  22  15 W12G22    30.11F
TELLURIDE      FAIR      67  25  20 SW6G21    30.15F
WOLF CREEK PAS FAIR      48  27  43 S22G36    30.37F
$$

COZ009-010-012-014-032>034-037-058>063-202300-
...CENTRAL COLORADO...

CITY           SKY/WX    TMP DP  RH WIND       PRES   REMARKS
ASPEN          FAIR      72  25  17 S9        29.98F
BUENA VISTA    FAIR      75  18  11 S14G22    29.98F
COPPER MTN     FAIR      59  16  18 W16G30    30.27R
BERTHOUD PASS  FAIR      50  41  71 W24G40    30.28F
COTTONWOOD PAS FAIR      70  14  11 SW16G24   30.13S
GUNNISON       FAIR      73  28  18 W13G21    30.00F
KREMMLING      FAIR      79  21  11 W16G26    29.95F
LEADVILLE      FAIR      63  14  15 SW18G29   30.11S
MONARCH PASS   FAIR      55  25  30 SW25G36   30.39S
SALIDA         FAIR      78  22  12 SW10G20   30.04S
SUNLIGHT       CLOUDY    54  28  37 SW15G29   30.21F
WILKERSON PASS FAIR      61  16  17 S10G25    30.24S
$$

COZ069>075-202300-
...SAN LUIS VALLEY/SANGRE DE CRISTO MOUNTAINS...

CITY           SKY/WX    TMP DP  RH WIND       PRES   REMARKS
ALAMOSA        FAIR      76  25  15 SW21G30   30.04F
DEL NORTE      FAIR      71  28  20 SW20G26   30.06F
LA VETA PASS   FAIR      64  27  24 S28G41    30.31S
SAGUACHE       FAIR      77  28  16 NW10G16   30.00S
$$

COZ035-036-038>040-202300-
...NORTHERN COLORADO FRONT RANGE...

CITY           SKY/WX    TMP DP  RH WIND       PRES   REMARKS
DENVER INTL AP FAIR      79  28  15 SE17      29.82F
DMNS CITY PARK   N/A     77  31  19 E2G16     29.82F
AURORA         MOSUNNY   78  30  17 S14       29.84S
FRONT RANGE AP NOT AVBL
ERIE MUNI ARPT FAIR      75  32  20 NW3       29.87F
BOULDER MUN AP FAIR      72  32  23 NW3       29.84F
CENTENNIAL     FAIR      76  28  17 S10       29.84F
BROOMFIELD     MOSUNNY   75  32  20 N9        29.86F
FORT COLLINS   FAIR      78  35  21 SW6       29.83F
LONGMONT       FAIR      78  35  21 NW6       29.84F
$$

COZ041-046-047-076>085-087-088-202300-
...PIKES PEAK/PALMER DIVIDE AND SOUTHERN FOOTHILLS...

CITY           SKY/WX    TMP DP  RH WIND       PRES   REMARKS
COLO. SPRINGS  FAIR      70  29  21 S23G31    29.97S
A. F. ACADEMY  FAIR      68  27  21 S23G31    29.95F
SCHRIEVER AFB  FAIR      67  26  21 S24       29.97F
CHEYENNE MTN   FAIR      64  28  25 SE21G31   29.94
ELLICOTT         N/A    N/A N/A N/A S17G25    29.96F
FALCON         FAIR      66  25  21 S20G30    30.00S
FORT CARSON    FAIR      71  29  20 S18       29.94F
LIMON          FAIR      72  27  18 S20G33    29.92F
MONUMENT HILL  FAIR      64  28  25 S29G37    29.95F
CANON CITY     SUNNY     75  32  20 NE10      29.91F
WALSENBURG     FAIR      86  28  12 W17       29.90F
TRINIDAD       FAIR      82  34  17 S13G20    29.91F
$$

COZ042>045-048>051-090-091-202300-
...NORTHEAST COLORADO...

CITY           SKY/WX    TMP DP  RH WIND       PRES   REMARKS
GREELEY ARPT   FAIR      80  33  18 SE16G22   29.81F
AKRON          FAIR      76  24  14 S22G31    29.88F
BURLINGTON     FAIR      77  30  17 S20G26    29.91F
WRAY           FAIR      79  27  14 S16G24    29.89F
YUMA           FAIR      73  32  21 S15G23    29.88F
STERLING       FAIR      77  32  19 S18G26    29.84F
HOLYOKE        NOT AVBL
FORT MORGAN    FAIR      77  23  13 SE20G25   29.85F
$$

COZ086-089-092>099-202300-
...SOUTHEAST COLORADO...

CITY           SKY/WX    TMP DP  RH WIND       PRES   REMARKS
PUEBLO         FAIR      79  30  16 SE17G24   29.86F
LA JUNTA       FAIR      80  29  15 SE20G26   29.88F
LAMAR          FAIR      79  31  17 S15G21    29.88F
SPRINGFIELD      N/A     74  38  27 S14       29.94F
$$




USA.gov is the U.S. government's official web portal to all federal, state and local government web resources and services.